Regional Weather Roundup
Issued by NWS Upton, NY

Current Version | Previous Version | Text Only | Print | Product List | Glossary On
Versions: 1 2 3 4 5 6 7 8 9 10 11 12 13 14 15 16 17 18 19 20 21 22 23 24 25 26 27
000
ASUS41 KOKX 031304
RWROKX

REGIONAL WEATHER ROUNDUP
NATIONAL WEATHER SERVICE NEW YORK NY
900 AM EDT TUE MAY 03 2016

NOTE: "FAIR" INDICATES FEW OR NO CLOUDS BELOW 12,000 FEET WITH NO
SIGNIFICANT WEATHER AND/OR OBSTRUCTIONS TO VISIBILITY.

NYZ071-072-176-178-NJZ106-104-031400-
NEW YORK CITY METRO AREA


CITY           SKY/WX    TMP DP  RH WIND       PRES   REMARKS
CENTRAL PARK   LGT RAIN  52  50  93 VRB7      29.89F FOG
LAGUARDIA APRT LGT RAIN  54  50  86 NE15G25   29.86F
KENNEDY INTL   LGT RAIN  54  51  90 NE10      29.86F FOG
NEWARK/LIBERTY LGT RAIN  55  53  93 NE12      29.85F
BRNX BOT. GARD   N/A     52  50  93 E3        29.86F
TETERBORO      LGT RAIN  53  49  86 VRB5      29.85F FOG
$$

NYZ177-179-078>081-031400-
LONG ISLAND NEW YORK

CITY           SKY/WX    TMP DP  RH WIND       PRES   REMARKS
FARMINGDALE    LGT RAIN  53  51  93 E7        29.86S
ISLIP          NOT AVBL
SHIRLEY        LGT RAIN  52  51  97 VRB5      29.88F
RIVERHEAD        N/A     52  50  93 E3        29.88F
WESTHAMPTON    LGT RAIN  49  49 100 E9        29.89F FOG
EAST HAMPTON   RAIN      50  49  97 E3        29.89S
MONTAUK POINT    N/A     49  48  97 E5        29.91S
$$

NYZ052-065-067-031400-
HUDSON VALLEY

CITY           SKY/WX    TMP DP  RH WIND       PRES   REMARKS
WHITE PLAINS   LGT RAIN  51  49  92 NE6       29.87S FOG
NEWBURGH       LGT RAIN  48  48 100 NE9       29.90F FOG
MONTGOMERY     LGT RAIN  50  47  89 NE10      29.89S
POUGHKEEPSIE   LGT RAIN  51  47  86 N6        29.90F
ALBANY         CLOUDY    49  42  77 NE6       29.93S
$$

NJZ001-105-106-008-010-013-015-019>022-104-031400-
NEW JERSEY

CITY           SKY/WX    TMP DP  RH WIND       PRES   REMARKS
NEWARK/LIBERTY LGT RAIN  55  53  93 NE12      29.85F
TETERBORO      LGT RAIN  53  49  86 VRB5      29.85F FOG
CALDWELL       LGT RAIN  52  50  93 E8        29.87S FOG
MORRISTOWN     LGT RAIN  52  52 100 NE8       29.87F
SOMERVILLE     CLOUDY    54  51  90 NE6       29.83F FOG
SUSSEX         LGT RAIN  49  46  90 N10       29.88F FOG
ANDOVER          N/A     51  50  96 NE5       29.86F
TRENTON        CLOUDY    54  51  90 E9        29.82S
MILLVILLE      LGT RAIN  56  55  97 NE5       29.78F FOG
ATLANTIC CITY  LGT RAIN  54  53  97 E9        29.80F VSB 1/2
WRIGHTSTOWN    CLOUDY    54  52  94 E10       29.80S
TOMS RIVER     CLOUDY    54  48  82 E8G16     29.83F
BELMAR         LGT RAIN  53  52  96 E12       29.84F FOG
$$

PAZ047>061-062-071-031400-
EASTERN PENNSYLVANIA

CITY           SKY/WX    TMP DP  RH WIND       PRES   REMARKS
PHILADELPHIA   CLOUDY    57  53  86 NE8       29.81F
ALLENTOWN      CLOUDY    53  50  89 NE9       29.85R FOG
SCRANTON       LGT RAIN  48  46  93 NE7       29.86F FOG
$$

CTZ002-004>006-009-010-012-RIZ004-006-007-MAZ004-011-015-031400-
SOUTHERN NEW ENGLAND
 IN CT

CITY           SKY/WX    TMP DP  RH WIND       PRES   REMARKS
BRADLEY INTL   LGT RAIN  49  47  93 N5        29.90R FOG
HARTFORD       LGT RAIN  52  49  89 N3        29.91R FOG
DANBURY        LGT RAIN  51  48  89 NE5       29.90S FOG
WTRBRY/OXFORD  LGT RAIN  48  46  93 CALM      29.91S VSB 1
BRIDGEPORT     LGT RAIN  51  49  92 E14       29.89S
MERIDEN        LGT RAIN  51  48  89 CALM      29.90S FOG
NEW HAVEN      CLOUDY    51  50  96 CALM      29.89S FOG
CHESTER        NOT AVBL
GROTON         LGT RAIN  50  50 100 E6        29.90S FOG
WILLIMANTIC    LGT RAIN  51  47  86 CALM      29.91S

 IN RI

CITY           SKY/WX    TMP DP  RH WIND       PRES   REMARKS
PROVIDENCE     LGT RAIN  48  46  93 NE7       29.92R FOG
BLOCK ISLAND   RAIN      47  47 100 NE8       29.91R FOG
WESTERLY       LGT RAIN  50  47  89 NE3       29.91S FOG

 IN MA

CITY           SKY/WX    TMP DP  RH WIND       PRES   REMARKS
BOSTON         LGT RAIN  46  43  89 E6        29.94R
WORCESTER      LGT RAIN  45  44  97 VRB3      29.91R VSB 3/4
WESTFIELD      LGT RAIN  47  45  93 N8        29.92R FOG
PROVINCETOWN   LGT RAIN  46  44  93 NE6       29.93F
NANTUCKET      LGT RAIN  48  45  89 NE9       29.90F FOG
$$

ANZ330-335-338-340-345-350-353-355-031400-
COASTAL MARINE OBSERVATIONS


STATION/POSITION TIME  SKY/WX   TEMP    WIND        PRES    VSBY  WAVE
                                AIR SEA DIR/SP/G                  HT/PER
                 (UTC)          (F)     (DEG/KT/KT) (MB)    (MI)  (FT/S)
NY HARB ENTRANCE 1150            52 51   50/ 10/ 12 1010.6          3/ 9
20S FIRE ISLAND  1150            50 49   30/ 10/ 14 1011.1          3/ 7
GREAT SOUTH BAY  1200            52 56   50/ 10/ 12   N/A
23 SSW MONTAUK P 1250            47 47   70/ 12/ 14 1011.8          3/ 9
15 E BARNEGAT LI 1222               51                N/A           3/ 8
HUDSON CANYON    1150            52 49              1009.3          3/ 9
KINGS POINT      1200            52 53              1011.4
EXECUTION ROCKS  NOT AVBL
CENTRAL LI SOUND 1230            49      90/ 12/ 14   N/A           0
EASTERN LI SOUND 1200            49 48   80/ 10/ 12   N/A
ROBBINS REEF     1200            53      60/  9/ 12 1010.6
$$


>>>>>>>>>>>>>>>>>>>>>>>>>>>> KEY <<<<<<<<<<<<<<<<<<<<<<<<<<<
>                                                          <
>     SKY/WX - SKY CONDITION/PRESENT WEATHER               <
>     TMP    - TEMPERATURE IN FAHRENHEIT                   <
>     DP     - DEWPOINT IN FAHRENHEIT                      <
>     RH     - RELATIVE HUMIDITY IN PERCENT                <
>     WIND   - DIRECTION AND SPEED IN MPH                  <
>     PRES   - MEAN SEA LEVEL PRESSURE IN INCHES OF HG     <
>     WCI    - WIND CHILL INDEX                            <
>     VSB    - VISIBILITY IN MILES                         <
>     HX     - HEAT INDEX                                  <
>     TC     - TEMPERATURE IN CELSIUS                      <
>     VRB    - VARIABLE WIND DIRECTION                     <
>                                                          <
>>>>>>>>>>>>>>>>>>>>>>>>>>>> KEY <<<<<<<<<<<<<<<<<<<<<<<<<<<






USA.gov is the U.S. government's official web portal to all federal, state and local government web resources and services.